TimeEST,TemperatureF,Dew PointF,Humidity,Sea Level PressureIn,VisibilityMPH,Wind Direction,Wind SpeedMPH,Gust SpeedMPH,PrecipitationIn,Events,Conditions,WindDirDegrees,DateUTC
12:15 AM,53.6,41.0,62,30.13,10.0,SSW,5.8,-,N/A,,Overcast,210,2012-12-05 05:15:00
12:35 AM,53.6,41.0,62,30.12,10.0,SW,4.6,-,N/A,,Overcast,220,2012-12-05 05:35:00
12:55 AM,53.6,41.0,62,30.12,10.0,WSW,4.6,-,N/A,,Overcast,250,2012-12-05 05:55:00
1:15 AM,55.4,41.0,58,30.12,10.0,West,8.1,-,N/A,,Overcast,280,2012-12-05 06:15:00
1:35 AM,53.6,42.8,67,30.13,10.0,West,9.2,-,N/A,,Overcast,280,2012-12-05 06:35:00
1:55 AM,53.6,44.6,72,30.13,10.0,West,8.1,-,N/A,,Overcast,280,2012-12-05 06:55:00
2:15 AM,53.6,44.6,72,30.12,10.0,West,4.6,-,N/A,,Overcast,270,2012-12-05 07:15:00
2:55 AM,51.8,44.6,76,30.14,10.0,NW,8.1,-,N/A,,Overcast,310,2012-12-05 07:55:00
3:15 AM,50.0,41.0,71,30.13,10.0,NNW,10.4,-,N/A,,Overcast,330,2012-12-05 08:15:00
3:35 AM,48.2,41.0,76,30.13,10.0,NNW,6.9,-,N/A,,Scattered Clouds,340,2012-12-05 08:35:00
3:55 AM,48.2,39.2,71,30.14,10.0,NNW,3.5,-,N/A,,Mostly Cloudy,340,2012-12-05 08:55:00
4:15 AM,46.4,39.2,76,30.14,10.0,WNW,3.5,-,N/A,,Overcast,290,2012-12-05 09:15:00
4:35 AM,46.4,37.4,71,30.15,10.0,West,3.5,-,N/A,,Overcast,280,2012-12-05 09:35:00
4:55 AM,44.6,37.4,76,30.15,10.0,Calm,Calm,-,N/A,,Overcast,0,2012-12-05 09:55:00
5:15 AM,44.6,37.4,76,30.15,10.0,North,3.5,-,N/A,Rain,Light Rain,350,2012-12-05 10:15:00
5:35 AM,44.6,37.4,76,30.17,10.0,Calm,Calm,-,N/A,Rain,Light Rain,0,2012-12-05 10:35:00
5:55 AM,42.8,37.4,81,30.17,10.0,Calm,Calm,-,N/A,,Light Drizzle,0,2012-12-05 10:55:00
6:15 AM,42.8,33.8,70,30.18,10.0,ENE,3.5,-,N/A,,Overcast,60,2012-12-05 11:15:00
6:55 AM,42.8,32.0,66,30.20,10.0,Calm,Calm,-,N/A,,Overcast,0,2012-12-05 11:55:00
7:15 AM,41.0,32.0,70,30.20,10.0,Calm,Calm,-,N/A,,Overcast,0,2012-12-05 12:15:00
7:35 AM,41.0,33.8,76,30.22,10.0,Calm,Calm,-,N/A,,Overcast,0,2012-12-05 12:35:00
7:55 AM,41.0,32.0,70,30.22,10.0,Calm,Calm,-,N/A,,Overcast,0,2012-12-05 12:55:00
9:35 AM,41.0,28.4,61,30.25,10.0,NW,3.5,-,N/A,,Clear,320,2012-12-05 14:35:00
9:55 AM,41.0,28.4,61,30.25,10.0,Calm,Calm,-,N/A,,Clear,0,2012-12-05 14:55:00
10:15 AM,41.0,28.4,61,30.26,10.0,Calm,Calm,-,N/A,,Clear,0,2012-12-05 15:15:00
10:35 AM,42.8,26.6,53,30.26,10.0,NW,5.8,-,N/A,,Clear,320,2012-12-05 15:35:00
10:55 AM,41.0,30.2,65,30.26,10.0,West,5.8,-,N/A,,Clear,270,2012-12-05 15:55:00
11:15 AM,41.0,30.2,65,30.26,10.0,West,5.8,-,N/A,,Clear,270,2012-12-05 16:15:00
11:35 AM,42.8,30.2,61,30.25,10.0,WNW,4.6,-,N/A,,Clear,290,2012-12-05 16:35:00
11:55 AM,42.8,28.4,57,30.24,10.0,West,5.8,-,N/A,,Clear,270,2012-12-05 16:55:00
12:15 PM,44.6,28.4,53,30.23,10.0,WNW,6.9,-,N/A,,Clear,290,2012-12-05 17:15:00
12:35 PM,46.4,26.6,46,30.22,10.0,West,6.9,-,N/A,,Clear,270,2012-12-05 17:35:00
12:55 PM,46.4,23.0,40,30.22,10.0,West,10.4,-,N/A,,Clear,280,2012-12-05 17:55:00
1:15 PM,46.4,23.0,40,30.22,10.0,WNW,9.2,-,N/A,,Clear,290,2012-12-05 18:15:00
1:35 PM,46.4,21.2,37,30.21,10.0,NW,6.9,-,N/A,,Clear,310,2012-12-05 18:35:00
1:55 PM,46.4,21.2,37,30.21,10.0,WNW,9.2,-,N/A,,Clear,300,2012-12-05 18:55:00
2:15 PM,46.4,19.4,34,30.21,10.0,WNW,5.8,-,N/A,,Clear,290,2012-12-05 19:15:00
2:55 PM,46.4,17.6,32,30.20,10.0,NW,6.9,-,N/A,,Clear,310,2012-12-05 19:55:00
3:15 PM,46.4,19.4,34,30.20,10.0,NW,4.6,-,N/A,,Clear,320,2012-12-05 20:15:00
3:35 PM,46.4,19.4,34,30.21,10.0,NNW,9.2,-,N/A,,Clear,330,2012-12-05 20:35:00
3:55 PM,46.4,21.2,37,30.21,10.0,NW,5.8,-,N/A,,Clear,310,2012-12-05 20:55:00
4:15 PM,44.6,23.0,43,30.21,10.0,NNW,5.8,-,N/A,,Clear,330,2012-12-05 21:15:00
4:35 PM,44.6,23.0,43,30.21,10.0,NNW,5.8,-,N/A,,Clear,330,2012-12-05 21:35:00
4:55 PM,42.8,23.0,46,30.22,10.0,NW,4.6,-,N/A,,Clear,310,2012-12-05 21:55:00
5:15 PM,41.0,26.6,57,30.22,10.0,NNW,4.6,-,N/A,,Clear,330,2012-12-05 22:15:00
5:35 PM,39.2,24.8,56,30.23,10.0,Calm,Calm,-,N/A,,Clear,0,2012-12-05 22:35:00
5:55 PM,39.2,26.6,61,30.24,10.0,NW,3.5,-,N/A,,Clear,310,2012-12-05 22:55:00
6:15 PM,37.4,26.6,65,30.24,10.0,NW,4.6,-,N/A,,Clear,320,2012-12-05 23:15:00
6:35 PM,37.4,28.4,70,30.24,10.0,NW,3.5,-,N/A,,Clear,310,2012-12-05 23:35:00
6:55 PM,37.4,28.4,70,30.25,10.0,NW,3.5,-,N/A,,Clear,310,2012-12-05 23:55:00
7:15 PM,37.4,28.4,70,30.25,10.0,NW,3.5,-,N/A,,Clear,320,2012-12-06 00:15:00
7:35 PM,37.4,28.4,70,30.26,10.0,Calm,Calm,-,N/A,,Clear,0,2012-12-06 00:35:00
7:55 PM,35.6,28.4,75,30.25,10.0,NW,4.6,-,N/A,,Clear,310,2012-12-06 00:55:00
8:15 PM,33.8,26.6,75,30.26,10.0,Calm,Calm,-,N/A,,Clear,0,2012-12-06 01:15:00
8:35 PM,32.0,26.6,80,30.26,10.0,Calm,Calm,-,N/A,,Clear,0,2012-12-06 01:35:00
8:55 PM,32.0,26.6,80,30.26,10.0,Calm,Calm,-,N/A,,Clear,0,2012-12-06 01:55:00
9:15 PM,30.2,26.6,86,30.26,10.0,Calm,Calm,-,N/A,,Clear,0,2012-12-06 02:15:00
9:35 PM,32.0,26.6,80,30.26,10.0,Calm,Calm,-,N/A,,Clear,0,2012-12-06 02:35:00
9:55 PM,32.0,26.6,80,30.25,10.0,Calm,Calm,-,N/A,,Clear,0,2012-12-06 02:55:00
10:15 PM,32.0,28.4,87,30.25,10.0,Calm,Calm,-,N/A,,Clear,0,2012-12-06 03:15:00
10:35 PM,30.2,24.8,80,30.25,10.0,Calm,Calm,-,N/A,,Clear,0,2012-12-06 03:35:00
10:55 PM,28.4,24.8,86,30.25,10.0,Calm,Calm,-,N/A,,Clear,0,2012-12-06 03:55:00
11:15 PM,28.4,24.8,86,30.25,10.0,Calm,Calm,-,N/A,,Clear,0,2012-12-06 04:15:00
11:35 PM,28.4,24.8,86,30.25,10.0,North,3.5,-,N/A,,Clear,10,2012-12-06 04:35:00
11:55 PM,28.4,24.8,86,30.25,10.0,Calm,Calm,-,N/A,,Clear,0,2012-12-06 04:55:00